VK2ADG-1 Weather Reports


Display with metric or nautical units.
time (UTC)temp
F
wind
direction
speed
MPH
gust
MPH
rain 1hr
in
rain 24hr
in
rain mn
in
humidity
%
barometer
mb
20260510120036 49 3 3.0 4.0 0.00 0.00 0.00 96 1031.9
20260510115034 49 359 3.0 3.0 0.00 0.00 0.00 96 1031.9
20260510114032 49 3 3.0 5.0 0.00 0.00 0.00 95 1031.8
20260510113029 50 1 3.0 4.0 0.00 0.00 0.00 95 1031.9
20260510112026 50 3 3.0 4.0 0.00 0.00 0.00 94 1031.7
20260510111024 51 9 3.0 4.0 0.00 0.00 0.00 94 1031.7
20260510110043 50 15 3.0 4.0 0.00 0.00 0.00 95 1031.6
20260510105019 50 5 3.0 4.0 0.00 0.00 0.00 94 1031.6
20260510104017 51 4 3.0 3.0 0.00 0.00 0.00 94 1031.5
20260510103116 51 357 3.0 4.0 0.00 0.00 0.00 93 1031.4
20260510102033 52 352 3.0 4.0 0.00 0.00 0.00 93 1031.3
20260510101030 52 354 3.0 4.0 0.00 0.00 0.00 93 1031.2
20260510100027 52 349 2.0 3.0 0.00 0.00 0.00 92 1031.2
20260510095026 53 345 1.0 3.0 0.00 0.00 0.00 92 1031.1
20260510094022 53 355 1.0 2.0 0.00 0.00 0.00 91 1031.0
20260510093021 53 56 3.0 6.0 0.00 0.00 0.00 90 1030.9
20260510092018 53 1 2.0 4.0 0.00 0.00 0.00 90 1030.9
20260510091036 54 358 2.0 3.0 0.00 0.00 0.00 89 1030.8
20260510090034 54 18 1.0 5.0 0.00 0.00 0.00 87 1030.5
20260510085032 54 248 1.0 3.0 0.00 0.00 0.00 86 1030.3
20260510084029 55 339 2.0 3.0 0.00 0.00 0.00 84 1030.1
20260510083046 55 344 2.0 3.0 0.00 0.00 0.00 83 1029.8
20260510082023 56 352 3.0 4.0 0.00 0.00 0.00 83 1029.7
20260510081022 56 344 3.0 4.0 0.00 0.00 0.00 81 1029.3
20260510080018 57 344 3.0 4.0 0.00 0.00 0.00 80 1029.2
20260510075016 58 14 2.0 6.0 0.00 0.00 0.00 79 1029.2
20260510074035 58 31 3.0 5.0 0.00 0.00 0.00 78 1028.9
20260510073032 58 40 3.0 5.0 0.00 0.00 0.00 76 1028.8
20260510072031 59 57 3.0 5.0 0.00 0.00 0.00 75 1028.8
20260510071108 60 50 2.0 5.0 0.00 0.00 0.00 72 1028.5
20260510070025 60 32 2.0 4.0 0.00 0.00 0.00 70 1028.4
20260510065043 61 69 3.0 6.0 0.00 0.00 0.00 69 1028.2
20260510064021 61 72 2.0 4.0 0.00 0.00 0.00 66 1028.0
20260510063018 62 95 3.0 6.0 0.00 0.00 0.00 65 1028.0
20260510062057 62 93 3.0 6.0 0.00 0.00 0.00 63 1027.9
20260510061033 63 97 3.0 7.0 0.00 0.00 0.00 62 1027.7
20260510060133 63 102 3.0 6.0 0.00 0.00 0.00 61 1027.7
20260510055049 63 102 4.0 6.0 0.00 0.00 0.00 60 1027.5
20260510054026 63 128 3.0 5.0 0.00 0.00 0.00 60 1027.4
20260510053024 63 136 4.0 8.0 0.00 0.00 0.00 60 1027.3
20260510052021 63 121 5.0 7.0 0.00 0.00 0.00 60 1027.4
20260510051020 64 125 3.0 6.0 0.00 0.00 0.00 59 1027.3
20260510050016 64 111 4.0 7.0 0.00 0.00 0.00 60 1027.2
20260510045035 64 124 4.0 7.0 0.00 0.00 0.00 59 1027.3
20260510044053 64 136 4.0 6.0 0.00 0.00 0.00 59 1027.1
20260510043051 65 139 5.0 7.0 0.00 0.00 0.00 59 1027.0
20260510042029 64 142 3.0 6.0 0.00 0.00 0.00 60 1027.1
20260510041025 65 150 3.0 6.0 0.00 0.00 0.00 58 1027.0
20260510040042 65 132 4.0 8.0 0.00 0.00 0.00 58 1027.1
20260510035042 65 122 2.0 5.0 0.00 0.00 0.00 57 1026.9
20260510034039 64 146 4.0 7.0 0.00 0.00 0.00 57 1027.1
20260510033036 64 162 4.0 7.0 0.00 0.00 0.00 57 1027.2
20260510032034 64 132 3.0 7.0 0.00 0.00 0.00 57 1027.3
20260510031031 64 121 2.0 4.0 0.00 0.00 0.00 57 1027.4
20260510030029 64 151 4.0 8.0 0.00 0.00 0.00 58 1027.4
20260510025027 64 136 2.0 4.0 0.00 0.00 0.00 60 1027.5
20260510024024 64 59 4.0 9.0 0.00 0.00 0.00 59 1027.7
20260510023022 64 57 2.0 6.0 0.00 0.00 0.00 59 1027.9
20260510022020 63 111 1.0 5.0 0.00 0.00 0.00 60 1028.0
20260510021016 64 26 2.0 6.0 0.00 0.00 0.00 59 1028.2
20260510020035 63 12 2.0 4.0 0.00 0.00 0.00 60 1028.3
20260510015032 62 31 3.0 8.0 0.00 0.00 0.00 61 1028.5
20260510014030 63 36 3.0 7.0 0.00 0.00 0.00 60 1028.6
20260510013028 62 37 2.0 6.0 0.00 0.00 0.00 62 1028.6
20260510012025 60 192 2.0 4.0 0.00 0.00 0.00 64 1028.7
20260510011043 60 185 2.0 4.0 0.00 0.00 0.00 64 1028.7
20260510010019 60 269 1.0 2.0 0.00 0.00 0.00 65 1028.9
20260510005018 59 286 1.0 4.0 0.00 0.00 0.00 67 1029.0
20260510004040 58 340 2.0 3.0 0.00 0.00 0.00 68 1029.1
20260510003034 56 225 1.0 2.0 0.00 0.00 0.00 73 1029.0
20260510002031 54 225 1.0 3.0 0.00 0.00 0.00 75 1029.0
20260510001029 55 12 1.0 2.0 0.00 0.00 0.00 75 1028.9
20260510000026 53 3 1.0 3.0 0.00 0.00 0.00 76 1029.0
20260509235024 52 325 1.0 4.0 0.00 0.00 0.00 78 1028.8
20260509234021 50 327 2.0 4.0 0.00 0.00 0.00 81 1028.9
20260509233040 48 351 2.0 4.0 0.00 0.00 0.00 83 1028.9
20260509232017 47 350 1.0 3.0 0.00 0.00 0.00 84 1028.9
20260509231035 45 3 1.0 3.0 0.00 0.00 0.00 86 1028.8
20260509230033 43 352 2.0 3.0 0.00 0.00 0.00 87 1028.9
20260509225030 42 1 1.0 3.0 0.00 0.00 0.00 88 1028.9
20260509224048 40 17 2.0 3.0 0.00 0.00 0.00 89 1028.8
20260509223046 40 25 2.0 4.0 0.00 0.00 0.00 88 1028.8
20260509222022 39 37 2.0 4.0 0.00 0.00 0.00 87 1028.6
20260509221020 38 29 3.0 4.0 0.00 0.00 0.00 88 1028.6
20260509220017 36 44 2.0 4.0 0.00 0.00 0.00 89 1028.3
20260509215037 36 42 3.0 4.0 0.00 0.00 0.00 90 1028.3
20260509214055 36 32 3.0 4.0 0.00 0.00 0.00 92 1028.0
20260509213031 34 33 3.0 5.0 0.00 0.00 0.00 95 1027.8
20260509212110 33 45 3.0 4.0 0.00 0.00 0.00 96 1027.7
20260509211026 33 29 4.0 5.0 0.00 0.00 0.00 97 1027.4
20260509210024 33 33 4.0 5.0 0.00 0.00 0.00 97 1027.2
20260509205022 33 23 4.0 5.0 0.00 0.00 0.00 97 1027.1
20260509203017 33 25 4.0 5.0 0.00 0.00 0.00 97 1026.8
20260509202056 33 28 4.0 5.0 0.00 0.00 0.00 97 1026.7
20260509201032 32 33 4.0 5.0 0.00 0.00 0.00 97 1026.6
20260509200030 32 35 3.0 4.0 0.00 0.00 0.00 97 1026.5
20260509195028 33 37 3.0 3.0 0.00 0.00 0.00 97 1026.3
20260509194024 33 40 3.0 4.0 0.00 0.00 0.00 97 1026.1
20260509193023 34 34 4.0 4.0 0.00 0.00 0.00 97 1026.0
20260509192020 34 35 2.0 4.0 0.00 0.00 0.00 96 1026.0
20260509191018 34 40 3.0 4.0 0.00 0.00 0.00 96 1025.8
20260509190036 33 34 3.0 5.0 0.00 0.00 0.00 96 1025.7
20260509185033 34 31 3.0 4.0 0.00 0.00 0.00 96 1025.5
20260509184113 36 28 3.0 4.0 0.00 0.00 0.00 96 1025.5
20260509183030 36 23 3.0 4.0 0.00 0.00 0.00 96 1025.4
20260509182027 36 28 3.0 4.0 0.00 0.00 0.00 96 1025.3
20260509181045 36 23 4.0 4.0 0.00 0.00 0.00 96 1025.2
20260509180022 37 27 4.0 6.0 0.00 0.00 0.00 96 1025.2
20260509175019 37 25 4.0 5.0 0.00 0.00 0.00 96 1025.2
20260509174017 37 24 4.0 5.0 0.00 0.00 0.00 96 1025.1
20260509173034 36 20 4.0 5.0 0.00 0.00 0.00 96 1025.1
20260509172033 36 25 3.0 5.0 0.00 0.00 0.00 96 1025.1
20260509171030 37 21 4.0 5.0 0.00 0.00 0.00 96 1025.1
20260509170027 37 22 3.0 4.0 0.00 0.00 0.00 96 1025.1
20260509165026 38 13 3.0 4.0 0.00 0.00 0.00 96 1025.1
20260509164023 37 22 4.0 5.0 0.00 0.00 0.00 96 1025.3
20260509163020 37 21 4.0 5.0 0.00 0.00 0.00 96 1025.3
20260509162017 38 19 4.0 5.0 0.00 0.00 0.00 96 1025.1
20260509161036 38 20 4.0 4.0 0.00 0.00 0.00 96 1025.3
20260509160034 38 15 3.0 4.0 0.00 0.00 0.00 96 1025.5
20260509155031 37 22 3.0 4.0 0.00 0.00 0.00 95 1025.4
20260509154029 38 24 4.0 4.0 0.00 0.00 0.00 95 1025.4
20260509153026 38 28 3.0 4.0 0.00 0.00 0.00 95 1025.3
20260509152024 39 24 3.0 4.0 0.00 0.00 0.00 95 1025.4
20260509151043 39 25 3.0 4.0 0.00 0.00 0.00 95 1025.4
20260509150019 39 15 3.0 4.0 0.00 0.00 0.00 95 1025.4
20260509145018 40 7 4.0 5.0 0.00 0.00 0.00 95 1025.5
20260509144035 40 21 3.0 4.0 0.00 0.00 0.00 95 1025.6
20260509143134 40 17 4.0 5.0 0.00 0.00 0.00 95 1025.6
20260509142031 40 20 3.0 5.0 0.00 0.00 0.00 94 1025.7
20260509141028 40 19 4.0 4.0 0.00 0.00 0.00 94 1025.5
20260509140026 41 19 3.0 4.0 0.00 0.00 0.00 94 1025.5
20260509135023 41 26 3.0 4.0 0.00 0.00 0.00 93 1025.5
20260509134020 41 17 3.0 4.0 0.00 0.00 0.00 93 1025.6
20260509133017 42 14 3.0 4.0 0.00 0.00 0.00 93 1025.7
20260509132036 42 13 3.0 4.0 0.00 0.00 0.00 92 1025.6
20260509131034 43 5 3.0 4.0 0.00 0.00 0.00 91 1025.5
20260509130031 43 13 3.0 4.0 0.00 0.00 0.00 91 1025.6
20260509125029 44 5 3.0 4.0 0.00 0.00 0.00 91 1025.5
20260509124107 45 6 2.0 4.0 0.00 0.00 0.00 91 1025.6
20260509123045 44 359 4.0 4.0 0.00 0.00 0.00 90 1025.6
20260509122022 45 6 4.0 4.0 0.00 0.00 0.00 89 1025.6
20260509121019 45 6 4.0 4.0 0.00 0.00 0.00 89 1025.7